Time,TemperatureF,DewpointF,PressureIn,WindDirection,WindDirectionDegrees,WindSpeedMPH,WindSpeedGustMPH,Humidity,HourlyPrecipIn,Conditions,Clouds,dailyrainin,SoftwareType,DateUTC
2013-01-11 00:03:00,32.2,30.1,30.15,SSW,198,8.0,8.0,92,0.00,,---,0.00,VWS V14.01,2013-01-11 08:03:00,
2013-01-11 00:08:00,32.3,30.0,30.15,SSW,192,5.0,5.0,91,0.00,,---,0.00,VWS V14.01,2013-01-11 08:08:00,
2013-01-11 00:13:00,32.4,30.1,30.16,SSW,207,0.0,2.0,91,0.00,,---,0.00,VWS V14.01,2013-01-11 08:13:00,
2013-01-11 00:18:00,32.3,30.0,30.16,SSW,207,3.0,4.0,91,0.00,,---,0.00,VWS V14.01,2013-01-11 08:18:00,
2013-01-11 00:23:00,32.1,29.8,30.15,South,180,5.0,5.0,91,0.00,,---,0.00,VWS V14.01,2013-01-11 08:23:00,
2013-01-11 00:28:00,32.1,30.0,30.16,SSW,198,4.0,5.0,92,0.00,,---,0.00,VWS V14.01,2013-01-11 08:28:00,
2013-01-11 00:33:00,32.0,29.9,30.15,South,190,4.0,5.0,92,0.00,,---,0.00,VWS V14.01,2013-01-11 08:33:00,
2013-01-11 00:38:00,32.0,30.2,30.16,South,188,5.0,5.0,93,0.00,,---,0.00,VWS V14.01,2013-01-11 08:38:00,
2013-01-11 00:43:00,32.1,30.0,30.16,SSW,194,4.0,5.0,92,0.00,,---,0.00,VWS V14.01,2013-01-11 08:43:00,
2013-01-11 00:48:00,32.1,30.0,30.16,SSW,196,4.0,5.0,92,0.00,,---,0.00,VWS V14.01,2013-01-11 08:48:00,
2013-01-11 00:53:00,32.0,29.9,30.16,South,182,2.0,5.0,92,0.00,,---,0.00,VWS V14.01,2013-01-11 08:53:00,
2013-01-11 00:58:00,31.9,29.8,30.16,SSW,195,3.0,4.0,92,0.00,,---,0.00,VWS V14.01,2013-01-11 08:58:00,
2013-01-11 01:03:00,31.8,29.8,30.16,SSW,196,3.0,4.0,92,0.00,,---,0.00,VWS V14.01,2013-01-11 09:03:00,
2013-01-11 01:08:00,31.8,29.8,30.16,SSW,196,2.0,2.0,92,0.00,,---,0.00,VWS V14.01,2013-01-11 09:08:00,
2013-01-11 01:13:00,31.8,29.8,30.16,SSW,202,3.0,4.0,92,0.00,,---,0.00,VWS V14.01,2013-01-11 09:13:00,
2013-01-11 01:18:00,31.8,29.8,30.17,SSW,206,4.0,6.0,92,0.00,,---,0.00,VWS V14.01,2013-01-11 09:18:00,
2013-01-11 01:23:00,31.8,30.0,30.17,SSW,198,4.0,4.0,93,0.00,,---,0.00,VWS V14.01,2013-01-11 09:23:00,
2013-01-11 01:28:00,31.7,29.9,30.17,SSW,196,1.0,3.0,93,0.00,,---,0.00,VWS V14.01,2013-01-11 09:28:00,
2013-01-11 01:33:00,31.7,29.9,30.17,SSW,200,0.0,2.0,93,0.00,,---,0.00,VWS V14.01,2013-01-11 09:33:00,
2013-01-11 01:38:00,31.6,29.5,30.17,WSW,242,0.0,2.0,92,0.00,,---,0.00,VWS V14.01,2013-01-11 09:38:00,
2013-01-11 01:43:00,31.4,29.4,30.17,WSW,242,1.0,2.0,92,0.00,,---,0.00,VWS V14.01,2013-01-11 09:43:00,
2013-01-11 01:48:00,31.4,29.1,30.17,WSW,242,0.0,1.0,91,0.00,,---,0.00,VWS V14.01,2013-01-11 09:48:00,
2013-01-11 01:53:00,31.3,29.0,30.18,WSW,242,1.0,1.0,91,0.00,,---,0.00,VWS V14.01,2013-01-11 09:53:00,
2013-01-11 01:58:00,31.3,29.0,30.18,WSW,242,2.0,2.0,91,0.00,,---,0.00,VWS V14.01,2013-01-11 09:58:00,
2013-01-11 02:03:00,31.2,29.1,30.18,WSW,242,2.0,3.0,92,0.00,,---,0.00,VWS V14.01,2013-01-11 10:03:00,
2013-01-11 02:08:00,31.1,28.8,30.18,WSW,240,1.0,2.0,91,0.00,,---,0.00,VWS V14.01,2013-01-11 10:08:00,
2013-01-11 02:13:00,31.1,28.8,30.18,WSW,240,0.0,0.0,91,0.00,,---,0.00,VWS V14.01,2013-01-11 10:13:00,
2013-01-11 02:18:00,31.0,28.7,30.18,WSW,240,0.0,0.0,91,0.00,,---,0.00,VWS V14.01,2013-01-11 10:18:00,
2013-01-11 02:23:00,30.8,28.5,30.19,WSW,240,2.0,2.0,91,0.00,,---,0.00,VWS V14.01,2013-01-11 10:23:00,
2013-01-11 02:28:00,30.8,28.5,30.18,WSW,240,2.0,2.0,91,0.00,,---,0.00,VWS V14.01,2013-01-11 10:28:00,
2013-01-11 02:33:00,30.7,28.4,30.19,WSW,238,0.0,1.0,91,0.00,,---,0.00,VWS V14.01,2013-01-11 10:33:00,
2013-01-11 02:38:00,30.7,28.7,30.18,WSW,238,0.0,0.0,92,0.00,,---,0.00,VWS V14.01,2013-01-11 10:38:00,
2013-01-11 02:43:00,30.6,28.3,30.18,WSW,238,2.0,3.0,91,0.00,,---,0.00,VWS V14.01,2013-01-11 10:43:00,
2013-01-11 02:48:00,30.5,28.5,30.18,WSW,238,2.0,3.0,92,0.00,,---,0.00,VWS V14.01,2013-01-11 10:48:00,
2013-01-11 02:53:00,30.5,28.5,30.19,WSW,238,2.0,3.0,92,0.00,,---,0.00,VWS V14.01,2013-01-11 10:53:00,
2013-01-11 02:58:00,30.7,28.9,30.19,SSW,204,2.0,3.0,93,0.00,,---,0.00,VWS V14.01,2013-01-11 10:58:00,
2013-01-11 03:03:00,30.9,29.1,30.19,SSW,192,3.0,3.0,93,0.00,,---,0.00,VWS V14.01,2013-01-11 11:03:00,
2013-01-11 03:08:00,31.0,29.2,30.19,SSW,192,1.0,2.0,93,0.00,,---,0.00,VWS V14.01,2013-01-11 11:08:00,
2013-01-11 03:13:00,31.0,29.2,30.19,SSW,192,0.0,0.0,93,0.00,,---,0.00,VWS V14.01,2013-01-11 11:13:00,
2013-01-11 03:18:00,31.0,29.2,30.19,SSW,192,2.0,2.0,93,0.00,,---,0.00,VWS V14.01,2013-01-11 11:18:00,
2013-01-11 03:23:00,30.8,29.0,30.19,SSW,192,1.0,2.0,93,0.00,,---,0.00,VWS V14.01,2013-01-11 11:23:00,
2013-01-11 03:28:00,30.7,28.9,30.19,SSW,192,2.0,2.0,93,0.00,,---,0.00,VWS V14.01,2013-01-11 11:28:00,
2013-01-11 03:33:00,30.5,28.7,30.19,SSW,192,2.0,2.0,93,0.00,,---,0.00,VWS V14.01,2013-01-11 11:33:00,
2013-01-11 03:38:00,30.5,28.7,30.19,SSW,192,0.0,1.0,93,0.00,,---,0.00,VWS V14.01,2013-01-11 11:38:00,
2013-01-11 03:43:00,30.5,28.7,30.19,SSW,192,2.0,2.0,93,0.00,,---,0.00,VWS V14.01,2013-01-11 11:43:00,
2013-01-11 03:48:00,30.3,28.5,30.19,South,178,0.0,1.0,93,0.00,,---,0.00,VWS V14.01,2013-01-11 11:48:00,
2013-01-11 03:53:00,30.3,28.8,30.20,South,178,0.0,0.0,94,0.00,,---,0.00,VWS V14.01,2013-01-11 11:53:00,
2013-01-11 03:58:00,30.2,28.7,30.20,South,178,0.0,0.0,94,0.00,,---,0.00,VWS V14.01,2013-01-11 11:58:00,
2013-01-11 04:03:00,30.2,28.7,30.20,South,178,0.0,0.0,94,0.00,,---,0.00,VWS V14.01,2013-01-11 12:03:00,
2013-01-11 04:08:00,30.2,28.7,30.20,South,178,0.0,0.0,94,0.00,,---,0.00,VWS V14.01,2013-01-11 12:08:00,
2013-01-11 04:13:00,30.1,28.6,30.20,South,178,0.0,2.0,94,0.00,,---,0.00,VWS V14.01,2013-01-11 12:13:00,
2013-01-11 04:18:00,30.0,28.5,30.20,South,178,1.0,2.0,94,0.00,,---,0.00,VWS V14.01,2013-01-11 12:18:00,
2013-01-11 04:23:00,29.9,28.4,30.20,South,178,0.0,0.0,94,0.00,,---,0.00,VWS V14.01,2013-01-11 12:23:00,
2013-01-11 04:28:00,29.8,28.3,30.20,South,178,0.0,1.0,94,0.00,,---,0.00,VWS V14.01,2013-01-11 12:28:00,
2013-01-11 04:33:00,29.7,28.2,30.20,South,178,0.0,1.0,94,0.00,,---,0.00,VWS V14.01,2013-01-11 12:33:00,
2013-01-11 04:38:00,29.6,28.1,30.20,South,178,2.0,2.0,94,0.00,,---,0.00,VWS V14.01,2013-01-11 12:38:00,
2013-01-11 04:43:00,29.5,28.0,30.21,South,178,2.0,4.0,94,0.00,,---,0.00,VWS V14.01,2013-01-11 12:43:00,
2013-01-11 04:48:00,29.6,28.4,30.20,South,178,5.0,5.0,95,0.00,,---,0.00,VWS V14.01,2013-01-11 12:48:00,
2013-01-11 04:53:00,29.7,28.7,30.21,South,189,3.0,4.0,96,0.00,,---,0.00,VWS V14.01,2013-01-11 12:53:00,
2013-01-11 04:58:00,29.8,28.8,30.20,South,190,3.0,5.0,96,0.00,,---,0.00,VWS V14.01,2013-01-11 12:58:00,
2013-01-11 05:03:00,29.9,28.9,30.20,South,190,3.0,3.0,96,0.00,,---,0.00,VWS V14.01,2013-01-11 13:03:00,
2013-01-11 05:08:00,29.8,28.5,30.21,South,190,2.0,3.0,95,0.00,,---,0.00,VWS V14.01,2013-01-11 13:08:00,
2013-01-11 05:13:00,29.7,28.5,30.21,South,190,2.0,3.0,95,0.00,,---,0.00,VWS V14.01,2013-01-11 13:13:00,
2013-01-11 05:18:00,29.6,28.4,30.21,South,190,2.0,3.0,95,0.00,,---,0.00,VWS V14.01,2013-01-11 13:18:00,
2013-01-11 05:23:00,29.5,28.2,30.21,South,190,1.0,3.0,95,0.00,,---,0.00,VWS V14.01,2013-01-11 13:23:00,
2013-01-11 05:28:00,29.5,28.5,30.21,South,190,4.0,5.0,96,0.00,,---,0.00,VWS V14.01,2013-01-11 13:28:00,
2013-01-11 05:33:00,29.5,28.5,30.22,SSW,200,3.0,4.0,96,0.00,,---,0.00,VWS V14.01,2013-01-11 13:33:00,
2013-01-11 05:38:00,29.5,28.5,30.22,SSW,195,4.0,4.0,96,0.00,,---,0.00,VWS V14.01,2013-01-11 13:38:00,
2013-01-11 05:43:00,29.5,28.5,30.22,SSW,194,3.0,4.0,96,0.00,,---,0.00,VWS V14.01,2013-01-11 13:43:00,
2013-01-11 05:48:00,29.6,28.6,30.22,South,188,2.0,4.0,96,0.00,,---,0.00,VWS V14.01,2013-01-11 13:48:00,
2013-01-11 05:53:00,29.4,28.4,30.22,South,188,5.0,5.0,96,0.00,,---,0.00,VWS V14.01,2013-01-11 13:53:00,
2013-01-11 05:58:00,29.4,28.4,30.23,South,186,4.0,6.0,96,0.00,,---,0.00,VWS V14.01,2013-01-11 13:58:00,
2013-01-11 06:03:00,29.4,28.4,30.23,SSE,160,4.0,5.0,96,0.00,,---,0.00,VWS V14.01,2013-01-11 14:03:00,
2013-01-11 06:08:00,29.3,28.3,30.23,South,182,3.0,3.0,96,0.00,,---,0.00,VWS V14.01,2013-01-11 14:08:00,
2013-01-11 06:13:00,29.3,28.3,30.23,South,182,3.0,4.0,96,0.00,,---,0.00,VWS V14.01,2013-01-11 14:13:00,
2013-01-11 06:18:00,29.3,28.3,30.23,South,182,3.0,4.0,96,0.00,,---,0.00,VWS V14.01,2013-01-11 14:18:00,
2013-01-11 06:23:00,29.2,28.2,30.24,South,182,2.0,3.0,96,0.00,,---,0.00,VWS V14.01,2013-01-11 14:23:00,
2013-01-11 06:28:00,29.1,28.1,30.24,South,182,2.0,3.0,96,0.00,,---,0.00,VWS V14.01,2013-01-11 14:28:00,
2013-01-11 06:33:00,29.0,27.8,30.24,South,182,1.0,2.0,95,0.00,,---,0.00,VWS V14.01,2013-01-11 14:33:00,
2013-01-11 06:38:00,28.9,27.6,30.24,South,182,1.0,1.0,95,0.00,,---,0.00,VWS V14.01,2013-01-11 14:38:00,
2013-01-11 06:43:00,28.8,27.5,30.24,South,182,1.0,2.0,95,0.00,,---,0.00,VWS V14.01,2013-01-11 14:43:00,
2013-01-11 06:48:00,28.7,27.5,30.25,South,182,1.0,2.0,95,0.00,,---,0.00,VWS V14.01,2013-01-11 14:48:00,
2013-01-11 06:53:00,28.5,27.2,30.25,South,182,2.0,2.0,95,0.00,,---,0.00,VWS V14.01,2013-01-11 14:53:00,
2013-01-11 06:58:00,28.5,27.2,30.25,South,182,2.0,3.0,95,0.00,,---,0.00,VWS V14.01,2013-01-11 14:58:00,
2013-01-11 07:03:00,28.4,27.1,30.25,South,182,1.0,2.0,95,0.00,,---,0.00,VWS V14.01,2013-01-11 15:03:00,
2013-01-11 07:08:00,28.4,27.1,30.25,SE,135,2.0,4.0,95,0.00,,---,0.00,VWS V14.01,2013-01-11 15:08:00,
2013-01-11 07:13:00,28.3,27.0,30.26,ENE,59,3.0,5.0,95,0.00,,---,0.00,VWS V14.01,2013-01-11 15:13:00,
2013-01-11 07:18:00,28.0,26.8,30.26,ENE,63,3.0,4.0,95,0.00,,---,0.00,VWS V14.01,2013-01-11 15:18:00,
2013-01-11 07:23:00,27.7,26.5,30.27,ENE,64,1.0,3.0,95,0.00,,---,0.00,VWS V14.01,2013-01-11 15:23:00,
2013-01-11 07:28:00,27.5,26.3,30.27,ENE,62,0.0,2.0,95,0.00,,---,0.00,VWS V14.01,2013-01-11 15:28:00,
2013-01-11 07:33:00,27.3,26.1,30.27,ENE,62,0.0,0.0,95,0.00,,---,0.00,VWS V14.01,2013-01-11 15:33:00,
2013-01-11 07:39:00,27.1,25.9,30.28,ENE,62,0.0,0.0,95,0.00,,---,0.00,VWS V14.01,2013-01-11 15:39:00,
2013-01-11 07:44:00,26.9,25.7,30.28,East,86,2.0,2.0,95,0.00,,---,0.00,VWS V14.01,2013-01-11 15:44:00,
2013-01-11 07:49:00,26.8,25.6,30.28,SSE,161,4.0,5.0,95,0.00,,---,0.00,VWS V14.01,2013-01-11 15:49:00,
2013-01-11 07:54:00,27.2,26.2,30.28,South,188,4.0,5.0,96,0.00,,---,0.00,VWS V14.01,2013-01-11 15:54:00,
2013-01-11 07:59:00,27.7,26.7,30.28,SSW,192,3.0,5.0,96,0.00,,---,0.00,VWS V14.01,2013-01-11 15:59:00,
2013-01-11 08:04:00,27.9,26.9,30.28,SSW,192,1.0,3.0,96,0.00,,---,0.00,VWS V14.01,2013-01-11 16:04:00,
2013-01-11 08:09:00,28.0,27.0,30.29,SSW,192,0.0,0.0,96,0.00,,---,0.00,VWS V14.01,2013-01-11 16:09:00,
2013-01-11 08:14:00,27.8,26.8,30.29,SSW,192,0.0,0.0,96,0.00,,---,0.00,VWS V14.01,2013-01-11 16:14:00,
2013-01-11 08:19:00,27.6,26.4,30.29,SSW,192,0.0,0.0,95,0.00,,---,0.00,VWS V14.01,2013-01-11 16:19:00,
2013-01-11 08:24:00,27.5,26.3,30.29,SSW,192,0.0,2.0,95,0.00,,---,0.00,VWS V14.01,2013-01-11 16:24:00,
2013-01-11 08:29:00,27.6,26.6,30.29,South,186,3.0,4.0,96,0.00,,---,0.00,VWS V14.01,2013-01-11 16:29:00,
2013-01-11 08:34:00,27.7,26.7,30.29,South,186,2.0,3.0,96,0.00,,---,0.00,VWS V14.01,2013-01-11 16:34:00,
2013-01-11 08:39:00,27.7,26.7,30.30,South,186,0.0,2.0,96,0.00,,---,0.00,VWS V14.01,2013-01-11 16:39:00,
2013-01-11 08:44:00,27.7,26.7,30.30,South,186,1.0,2.0,96,0.00,,---,0.00,VWS V14.01,2013-01-11 16:44:00,
2013-01-11 08:49:00,27.8,26.8,30.30,South,186,0.0,0.0,96,0.00,,---,0.00,VWS V14.01,2013-01-11 16:49:00,
2013-01-11 08:54:00,27.8,26.8,30.31,South,186,0.0,0.0,96,0.00,,---,0.00,VWS V14.01,2013-01-11 16:54:00,
2013-01-11 08:59:00,28.0,27.0,30.31,South,186,2.0,2.0,96,0.00,,---,0.00,VWS V14.01,2013-01-11 16:59:00,
2013-01-11 09:05:00,27.9,26.9,30.31,ENE,65,4.0,4.0,96,0.00,,---,0.00,VWS V14.01,2013-01-11 17:05:00,
2013-01-11 09:10:00,27.8,26.6,30.31,ENE,62,5.0,5.0,95,0.00,,---,0.00,VWS V14.01,2013-01-11 17:10:00,
2013-01-11 09:15:00,27.7,26.5,30.32,ENE,71,5.0,5.0,95,0.00,,---,0.00,VWS V14.01,2013-01-11 17:15:00,
2013-01-11 09:20:00,27.7,26.5,30.32,ENE,68,3.0,3.0,95,0.00,,---,0.00,VWS V14.01,2013-01-11 17:20:00,
2013-01-11 09:25:00,27.6,26.6,30.32,ENE,69,3.0,4.0,96,0.00,,---,0.00,VWS V14.01,2013-01-11 17:25:00,
2013-01-11 09:30:00,27.6,26.6,30.32,ENE,61,1.0,2.0,96,0.00,,---,0.00,VWS V14.01,2013-01-11 17:30:00,
2013-01-11 09:35:00,27.6,26.6,30.33,NE,53,0.0,2.0,96,0.00,,---,0.00,VWS V14.01,2013-01-11 17:35:00,
2013-01-11 09:40:00,27.7,26.7,30.33,NE,53,0.0,2.0,96,0.00,,---,0.00,VWS V14.01,2013-01-11 17:40:00,
2013-01-11 09:45:00,27.7,26.7,30.33,NE,53,0.0,1.0,96,0.00,,---,0.00,VWS V14.01,2013-01-11 17:45:00,
2013-01-11 09:50:00,27.9,26.9,30.33,NE,53,2.0,2.0,96,0.00,,---,0.00,VWS V14.01,2013-01-11 17:50:00,
2013-01-11 09:55:00,28.2,27.2,30.33,NE,53,2.0,2.0,96,0.00,,---,0.00,VWS V14.01,2013-01-11 17:55:00,
2013-01-11 10:00:00,28.9,28.2,30.33,NE,52,2.0,2.0,97,0.00,,---,0.00,VWS V14.01,2013-01-11 18:00:00,
2013-01-11 10:05:00,29.5,28.8,30.33,NE,52,0.0,2.0,97,0.00,,---,0.00,VWS V14.01,2013-01-11 18:05:00,
2013-01-11 10:10:00,30.2,29.5,30.32,NE,52,1.0,1.0,97,0.00,,---,0.00,VWS V14.01,2013-01-11 18:10:00,
2013-01-11 10:15:00,30.8,30.0,30.33,NE,52,0.0,1.0,97,0.01,,---,0.01,VWS V14.01,2013-01-11 18:15:00,
2013-01-11 10:20:00,31.5,30.8,30.33,NE,52,0.0,0.0,97,0.01,,---,0.01,VWS V14.01,2013-01-11 18:20:00,
2013-01-11 10:25:00,32.0,31.2,30.33,NE,52,0.0,1.0,97,0.01,,---,0.01,VWS V14.01,2013-01-11 18:25:00,
2013-01-11 10:30:00,31.9,30.4,30.33,NE,52,0.0,2.0,94,0.01,,---,0.01,VWS V14.01,2013-01-11 18:30:00,
2013-01-11 10:35:00,31.8,30.3,30.33,North,355,1.0,2.0,94,0.01,,---,0.01,VWS V14.01,2013-01-11 18:35:00,
2013-01-11 10:40:00,31.9,30.4,30.33,West,272,0.0,0.0,94,0.01,,---,0.01,VWS V14.01,2013-01-11 18:40:00,
2013-01-11 10:45:00,31.9,30.1,30.33,West,281,1.0,2.0,93,0.01,,---,0.01,VWS V14.01,2013-01-11 18:45:00,
2013-01-11 10:50:00,32.0,30.2,30.33,West,280,3.0,3.0,93,0.01,,---,0.01,VWS V14.01,2013-01-11 18:50:00,
2013-01-11 10:55:00,32.1,30.3,30.33,West,280,1.0,1.0,93,0.01,,---,0.01,VWS V14.01,2013-01-11 18:55:00,
2013-01-11 11:00:00,32.3,30.5,30.33,West,280,1.0,2.0,93,0.01,,---,0.01,VWS V14.01,2013-01-11 19:00:00,
2013-01-11 11:05:00,32.5,30.7,30.33,West,280,2.0,2.0,93,0.01,,---,0.01,VWS V14.01,2013-01-11 19:05:00,
2013-01-11 11:10:00,32.8,30.7,30.33,West,280,0.0,1.0,92,0.01,,---,0.01,VWS V14.01,2013-01-11 19:10:00,
2013-01-11 11:15:00,32.8,30.7,30.33,West,272,3.0,5.0,92,0.00,,---,0.01,VWS V14.01,2013-01-11 19:15:00,
2013-01-11 11:20:00,32.5,30.2,30.33,West,261,2.0,2.0,91,0.00,,---,0.01,VWS V14.01,2013-01-11 19:20:00,
2013-01-11 11:25:00,32.4,30.1,30.33,West,261,1.0,3.0,91,0.00,,---,0.01,VWS V14.01,2013-01-11 19:25:00,
2013-01-11 11:30:00,32.9,31.1,30.33,West,265,2.0,4.0,93,0.00,,---,0.01,VWS V14.01,2013-01-11 19:30:00,
2013-01-11 11:35:00,32.9,30.6,30.33,West,265,2.0,3.0,91,0.00,,---,0.01,VWS V14.01,2013-01-11 19:35:00,
2013-01-11 11:40:00,32.9,30.6,30.33,West,265,0.0,0.0,91,0.00,,---,0.01,VWS V14.01,2013-01-11 19:40:00,
2013-01-11 11:45:00,33.0,30.9,30.33,West,265,1.0,2.0,92,0.00,,---,0.01,VWS V14.01,2013-01-11 19:45:00,
2013-01-11 11:50:00,33.1,30.8,30.33,West,265,0.0,3.0,91,0.00,,---,0.01,VWS V14.01,2013-01-11 19:50:00,
2013-01-11 11:55:00,33.2,30.9,30.33,West,271,0.0,4.0,91,0.00,,---,0.01,VWS V14.01,2013-01-11 19:55:00,
2013-01-11 12:00:00,33.6,31.5,30.33,WNW,297,2.0,3.0,92,0.00,,---,0.01,VWS V14.01,2013-01-11 20:00:00,
2013-01-11 12:05:00,34.0,31.9,30.33,NW,309,1.0,3.0,92,0.00,,---,0.01,VWS V14.01,2013-01-11 20:05:00,
2013-01-11 12:10:00,34.7,32.9,30.33,NNW,345,2.0,3.0,93,0.00,,---,0.01,VWS V14.01,2013-01-11 20:10:00,
2013-01-11 12:15:00,34.8,32.2,30.33,NNW,345,3.0,4.0,90,0.00,,---,0.01,VWS V14.01,2013-01-11 20:15:00,
2013-01-11 12:20:00,34.5,31.9,30.33,NNW,345,1.0,2.0,90,0.00,,---,0.01,VWS V14.01,2013-01-11 20:20:00,
2013-01-11 12:25:00,34.2,31.6,30.34,WNW,292,7.0,7.0,90,0.00,,---,0.01,VWS V14.01,2013-01-11 20:25:00,
2013-01-11 12:30:00,33.9,31.3,30.34,West,260,2.0,4.0,90,0.00,,---,0.01,VWS V14.01,2013-01-11 20:30:00,
2013-01-11 12:35:00,33.6,31.3,30.34,West,265,2.0,6.0,91,0.00,,---,0.01,VWS V14.01,2013-01-11 20:35:00,
2013-01-11 12:40:00,33.7,31.4,30.34,West,265,1.0,2.0,91,0.00,,---,0.01,VWS V14.01,2013-01-11 20:40:00,
2013-01-11 12:45:00,34.2,32.1,30.34,West,265,3.0,3.0,92,0.00,,---,0.01,VWS V14.01,2013-01-11 20:45:00,
2013-01-11 12:50:00,34.9,32.3,30.34,West,277,1.0,2.0,90,0.00,,---,0.01,VWS V14.01,2013-01-11 20:50:00,
2013-01-11 12:55:00,35.0,32.1,30.34,NNW,336,2.0,4.0,89,0.00,,---,0.01,VWS V14.01,2013-01-11 20:55:00,
2013-01-11 13:00:00,34.8,31.9,30.34,NNW,336,2.0,2.0,89,0.00,,---,0.01,VWS V14.01,2013-01-11 21:00:00,
2013-01-11 13:05:00,34.6,32.0,30.34,NNW,336,3.0,4.0,90,0.00,,---,0.01,VWS V14.01,2013-01-11 21:05:00,
2013-01-11 13:10:00,34.4,31.8,30.35,West,281,4.0,6.0,90,0.00,,---,0.01,VWS V14.01,2013-01-11 21:10:00,
2013-01-11 13:15:00,34.1,31.5,30.34,WNW,292,1.0,1.0,90,0.00,,---,0.01,VWS V14.01,2013-01-11 21:15:00,
2013-01-11 13:20:00,34.1,31.8,30.35,WNW,292,0.0,1.0,91,0.00,,---,0.01,VWS V14.01,2013-01-11 21:20:00,
2013-01-11 13:25:00,34.4,32.3,30.35,WNW,292,0.0,1.0,92,0.00,,---,0.01,VWS V14.01,2013-01-11 21:25:00,
2013-01-11 13:30:00,34.6,32.0,30.35,WNW,292,0.0,0.0,90,0.00,,---,0.01,VWS V14.01,2013-01-11 21:30:00,
2013-01-11 13:35:00,35.0,32.6,30.35,WNW,292,1.0,1.0,91,0.00,,---,0.01,VWS V14.01,2013-01-11 21:35:00,
2013-01-11 13:40:00,35.2,32.6,30.35,WNW,294,2.0,3.0,90,0.00,,---,0.01,VWS V14.01,2013-01-11 21:40:00,
2013-01-11 13:45:00,35.3,32.4,30.35,ENE,72,3.0,3.0,89,0.00,,---,0.01,VWS V14.01,2013-01-11 21:45:00,
2013-01-11 13:50:00,35.2,32.3,30.35,ENE,61,1.0,3.0,89,0.00,,---,0.01,VWS V14.01,2013-01-11 21:50:00,
2013-01-11 13:55:00,35.0,32.1,30.35,ENE,62,1.0,4.0,89,0.00,,---,0.01,VWS V14.01,2013-01-11 21:55:00,
2013-01-11 14:00:00,35.2,32.6,30.35,NNE,22,0.0,3.0,90,0.00,,---,0.01,VWS V14.01,2013-01-11 22:00:00,
2013-01-11 14:05:00,35.5,32.6,30.35,NNE,16,1.0,3.0,89,0.00,,---,0.01,VWS V14.01,2013-01-11 22:05:00,
2013-01-11 14:10:00,35.5,32.3,30.35,North,355,0.0,2.0,88,0.00,,---,0.01,VWS V14.01,2013-01-11 22:10:00,
2013-01-11 14:15:00,35.3,32.1,30.35,North,355,1.0,2.0,88,0.00,,---,0.01,VWS V14.01,2013-01-11 22:15:00,
2013-01-11 14:20:00,35.5,32.3,30.35,North,355,0.0,0.0,88,0.00,,---,0.01,VWS V14.01,2013-01-11 22:20:00,
2013-01-11 14:25:00,35.4,32.2,30.35,North,355,2.0,3.0,88,0.00,,---,0.01,VWS V14.01,2013-01-11 22:25:00,
2013-01-11 14:30:00,35.1,31.9,30.35,North,355,1.0,2.0,88,0.00,,---,0.01,VWS V14.01,2013-01-11 22:30:00,
2013-01-11 14:35:00,35.0,31.8,30.35,North,355,1.0,1.0,88,0.00,,---,0.01,VWS V14.01,2013-01-11 22:35:00,
2013-01-11 14:40:00,35.3,32.7,30.35,North,355,0.0,2.0,90,0.00,,---,0.01,VWS V14.01,2013-01-11 22:40:00,
2013-01-11 14:45:00,35.9,33.3,30.35,North,355,3.0,3.0,90,0.00,,---,0.01,VWS V14.01,2013-01-11 22:45:00,
2013-01-11 14:50:00,36.3,33.1,30.35,North,360,1.0,2.0,88,0.00,,---,0.01,VWS V14.01,2013-01-11 22:50:00,
2013-01-11 14:55:00,36.8,33.3,30.35,North,360,2.0,3.0,87,0.00,,---,0.01,VWS V14.01,2013-01-11 22:55:00,
2013-01-11 15:00:00,37.2,33.7,30.35,North,360,3.0,3.0,87,0.00,,---,0.01,VWS V14.01,2013-01-11 23:00:00,
2013-01-11 15:05:00,37.5,33.7,30.35,North,5,2.0,4.0,86,0.00,,---,0.01,VWS V14.01,2013-01-11 23:05:00,
2013-01-11 15:10:00,37.8,33.4,30.35,NE,49,2.0,3.0,84,0.00,,---,0.01,VWS V14.01,2013-01-11 23:10:00,
2013-01-11 15:15:00,37.8,33.4,30.35,NE,44,2.0,4.0,84,0.00,,---,0.01,VWS V14.01,2013-01-11 23:15:00,
2013-01-11 15:20:00,37.7,33.0,30.35,NE,46,1.0,1.0,83,0.00,,---,0.01,VWS V14.01,2013-01-11 23:20:00,
2013-01-11 15:25:00,37.5,32.5,30.35,NE,49,2.0,3.0,82,0.00,,---,0.01,VWS V14.01,2013-01-11 23:25:00,
2013-01-11 15:30:00,37.6,33.2,30.35,NE,49,0.0,0.0,84,0.00,,---,0.01,VWS V14.01,2013-01-11 23:30:00,
2013-01-11 15:35:00,37.8,33.1,30.35,NE,45,1.0,3.0,83,0.00,,---,0.01,VWS V14.01,2013-01-11 23:35:00,
2013-01-11 15:40:00,37.9,33.5,30.36,NE,44,1.0,1.0,84,0.00,,---,0.01,VWS V14.01,2013-01-11 23:40:00,
2013-01-11 15:45:00,38.0,33.3,30.36,NE,44,1.0,3.0,83,0.00,,---,0.01,VWS V14.01,2013-01-11 23:45:00,
2013-01-11 15:50:00,38.0,33.3,30.36,NE,44,3.0,3.0,83,0.00,,---,0.01,VWS V14.01,2013-01-11 23:50:00,
2013-01-11 15:55:00,37.7,33.0,30.36,NE,44,2.0,2.0,83,0.00,,---,0.01,VWS V14.01,2013-01-11 23:55:00,
2013-01-11 16:00:00,37.3,32.6,30.36,NE,44,2.0,2.0,83,0.00,,---,0.01,VWS V14.01,2013-01-12 00:00:00,
2013-01-11 16:05:00,36.9,32.2,30.36,NE,44,0.0,1.0,83,0.00,,---,0.01,VWS V14.01,2013-01-12 00:05:00,
2013-01-11 16:10:00,36.4,32.0,30.36,NE,44,1.0,2.0,84,0.00,,---,0.01,VWS V14.01,2013-01-12 00:10:00,
2013-01-11 16:15:00,35.8,31.5,30.36,NE,44,2.0,3.0,84,0.00,,---,0.01,VWS V14.01,2013-01-12 00:15:00,
2013-01-11 16:20:00,35.2,31.1,30.36,NE,44,3.0,3.0,85,0.00,,---,0.01,VWS V14.01,2013-01-12 00:20:00,
2013-01-11 16:25:00,34.6,30.9,30.36,NE,44,2.0,2.0,86,0.00,,---,0.01,VWS V14.01,2013-01-12 00:25:00,
2013-01-11 16:30:00,34.1,30.6,30.36,NE,44,2.0,2.0,87,0.00,,---,0.01,VWS V14.01,2013-01-12 00:30:00,
2013-01-11 16:35:00,33.4,30.2,30.36,NE,44,3.0,3.0,88,0.00,,---,0.01,VWS V14.01,2013-01-12 00:35:00,
2013-01-11 16:40:00,32.9,30.0,30.36,NE,44,0.0,2.0,89,0.00,,---,0.01,VWS V14.01,2013-01-12 00:40:00,
2013-01-11 16:45:00,32.5,29.9,30.37,NE,44,2.0,3.0,90,0.00,,---,0.01,VWS V14.01,2013-01-12 00:45:00,
2013-01-11 16:50:00,32.1,29.5,30.37,NE,44,0.0,2.0,90,0.00,,---,0.01,VWS V14.01,2013-01-12 00:50:00,
2013-01-11 16:55:00,31.7,29.4,30.37,NE,44,0.0,0.0,91,0.00,,---,0.01,VWS V14.01,2013-01-12 00:55:00,
2013-01-11 17:00:00,31.4,29.1,30.37,NE,44,0.0,0.0,91,0.00,,---,0.01,VWS V14.01,2013-01-12 01:00:00,
2013-01-11 17:05:00,31.2,29.1,30.37,NE,44,0.0,1.0,92,0.00,,---,0.01,VWS V14.01,2013-01-12 01:05:00,
2013-01-11 17:10:00,30.9,28.9,30.37,NE,44,0.0,0.0,92,0.00,,---,0.01,VWS V14.01,2013-01-12 01:10:00,
2013-01-11 17:15:00,30.7,28.7,30.37,NE,44,2.0,3.0,92,0.00,,---,0.01,VWS V14.01,2013-01-12 01:15:00,
2013-01-11 17:20:00,30.5,28.5,30.37,NE,47,2.0,4.0,92,0.00,,---,0.01,VWS V14.01,2013-01-12 01:20:00,
2013-01-11 17:25:00,30.1,28.1,30.37,NE,47,0.0,0.0,92,0.00,,---,0.01,VWS V14.01,2013-01-12 01:25:00,
2013-01-11 17:30:00,29.9,28.1,30.37,NE,47,2.0,2.0,93,0.00,,---,0.01,VWS V14.01,2013-01-12 01:30:00,
2013-01-11 17:35:00,29.8,28.0,30.37,NE,47,2.0,3.0,93,0.00,,---,0.01,VWS V14.01,2013-01-12 01:35:00,
2013-01-11 17:40:00,29.7,27.9,30.38,NE,47,0.0,0.0,93,0.00,,---,0.01,VWS V14.01,2013-01-12 01:40:00,
2013-01-11 17:45:00,29.6,28.1,30.38,NE,47,1.0,2.0,94,0.00,,---,0.01,VWS V14.01,2013-01-12 01:45:00,
2013-01-11 17:50:00,29.5,28.0,30.38,NE,47,0.0,2.0,94,0.00,,---,0.01,VWS V14.01,2013-01-12 01:50:00,
2013-01-11 17:55:00,29.4,27.9,30.38,NE,47,1.0,1.0,94,0.00,,---,0.01,VWS V14.01,2013-01-12 01:55:00,
2013-01-11 18:00:00,29.4,27.9,30.38,NE,47,0.0,2.0,94,0.00,,---,0.01,VWS V14.01,2013-01-12 02:00:00,
2013-01-11 18:05:00,29.2,27.7,30.38,NE,47,0.0,0.0,94,0.01,,---,0.02,VWS V14.01,2013-01-12 02:05:00,
2013-01-11 18:10:00,29.2,27.7,30.38,NE,47,1.0,1.0,94,0.01,,---,0.02,VWS V14.01,2013-01-12 02:10:00,
2013-01-11 18:15:00,29.1,27.6,30.38,NE,47,0.0,0.0,94,0.01,,---,0.02,VWS V14.01,2013-01-12 02:15:00,
2013-01-11 18:20:00,29.0,27.5,30.38,NE,47,0.0,0.0,94,0.01,,---,0.02,VWS V14.01,2013-01-12 02:20:00,
2013-01-11 18:25:00,28.9,27.4,30.38,NE,47,0.0,2.0,94,0.01,,---,0.02,VWS V14.01,2013-01-12 02:25:00,
2013-01-11 18:30:00,28.8,27.3,30.38,NE,47,1.0,1.0,94,0.01,,---,0.02,VWS V14.01,2013-01-12 02:30:00,
2013-01-11 18:35:00,28.7,27.2,30.37,NE,47,0.0,0.0,94,0.01,,---,0.02,VWS V14.01,2013-01-12 02:35:00,
2013-01-11 18:40:00,28.7,27.5,30.38,NE,47,0.0,0.0,95,0.01,,---,0.02,VWS V14.01,2013-01-12 02:40:00,
2013-01-11 18:45:00,28.6,27.4,30.38,NE,47,0.0,0.0,95,0.01,,---,0.02,VWS V14.01,2013-01-12 02:45:00,
2013-01-11 18:50:00,28.5,27.2,30.37,NE,47,2.0,2.0,95,0.01,,---,0.02,VWS V14.01,2013-01-12 02:50:00,
2013-01-11 18:55:00,28.5,27.2,30.37,NE,47,1.0,2.0,95,0.01,,---,0.02,VWS V14.01,2013-01-12 02:55:00,
2013-01-11 19:00:00,28.4,27.1,30.37,NE,47,2.0,2.0,95,0.01,,---,0.02,VWS V14.01,2013-01-12 03:00:00,
2013-01-11 19:05:00,28.3,27.0,30.37,NE,47,0.0,2.0,95,0.00,,---,0.02,VWS V14.01,2013-01-12 03:05:00,
2013-01-11 19:10:00,28.3,27.0,30.37,NE,47,0.0,0.0,95,0.00,,---,0.02,VWS V14.01,2013-01-12 03:10:00,
2013-01-11 19:15:00,28.3,27.0,30.37,NE,47,0.0,2.0,95,0.00,,---,0.02,VWS V14.01,2013-01-12 03:15:00,
2013-01-11 19:20:00,28.2,27.0,30.37,NE,47,2.0,2.0,95,0.00,,---,0.02,VWS V14.01,2013-01-12 03:20:00,
2013-01-11 19:25:00,28.2,27.0,30.37,NE,47,0.0,0.0,95,0.00,,---,0.02,VWS V14.01,2013-01-12 03:25:00,
2013-01-11 19:30:00,28.0,26.8,30.37,NE,47,2.0,3.0,95,0.00,,---,0.02,VWS V14.01,2013-01-12 03:30:00,
2013-01-11 19:35:00,28.0,26.8,30.37,NE,47,1.0,2.0,95,0.00,,---,0.02,VWS V14.01,2013-01-12 03:35:00,
2013-01-11 19:40:00,28.0,26.8,30.36,NE,47,1.0,2.0,95,0.00,,---,0.02,VWS V14.01,2013-01-12 03:40:00,
2013-01-11 19:45:00,28.0,26.8,30.37,NE,47,0.0,0.0,95,0.00,,---,0.02,VWS V14.01,2013-01-12 03:45:00,
2013-01-11 19:50:00,27.9,26.7,30.37,NE,47,0.0,0.0,95,0.00,,---,0.02,VWS V14.01,2013-01-12 03:50:00,
2013-01-11 19:55:00,27.8,26.6,30.37,NE,47,0.0,0.0,95,0.00,,---,0.02,VWS V14.01,2013-01-12 03:55:00,
2013-01-11 20:00:00,27.8,26.6,30.37,NE,47,2.0,4.0,95,0.00,,---,0.02,VWS V14.01,2013-01-12 04:00:00,
2013-01-11 20:05:00,27.8,26.6,30.36,NE,47,1.0,3.0,95,0.00,,---,0.02,VWS V14.01,2013-01-12 04:05:00,
2013-01-11 20:10:00,27.7,26.5,30.36,NE,47,0.0,0.0,95,0.00,,---,0.02,VWS V14.01,2013-01-12 04:10:00,
2013-01-11 20:15:00,27.6,26.4,30.36,NE,47,3.0,3.0,95,0.00,,---,0.02,VWS V14.01,2013-01-12 04:15:00,
2013-01-11 20:20:00,27.6,26.6,30.36,NE,47,2.0,2.0,96,0.00,,---,0.02,VWS V14.01,2013-01-12 04:20:00,
2013-01-11 20:25:00,27.5,26.5,30.36,NE,47,0.0,1.0,96,0.00,,---,0.02,VWS V14.01,2013-01-12 04:25:00,
2013-01-11 20:31:00,27.4,26.4,30.36,NE,48,4.0,4.0,96,0.00,,---,0.02,VWS V14.01,2013-01-12 04:31:00,
2013-01-11 20:36:00,27.3,26.3,30.36,NE,49,2.0,3.0,96,0.00,,---,0.02,VWS V14.01,2013-01-12 04:36:00,
2013-01-11 20:41:00,27.2,26.2,30.36,NE,53,1.0,2.0,96,0.00,,---,0.02,VWS V14.01,2013-01-12 04:41:00,
2013-01-11 20:46:00,27.2,26.2,30.36,NE,55,0.0,1.0,96,0.00,,---,0.02,VWS V14.01,2013-01-12 04:46:00,
2013-01-11 20:51:00,27.1,26.1,30.37,NE,55,2.0,2.0,96,0.00,,---,0.02,VWS V14.01,2013-01-12 04:51:00,
2013-01-11 20:56:00,27.0,26.0,30.36,NE,55,0.0,0.0,96,0.00,,---,0.02,VWS V14.01,2013-01-12 04:56:00,
2013-01-11 21:00:00,27.0,26.0,30.36,NE,55,0.0,0.0,96,0.00,,---,0.02,VWS V14.01,2013-01-12 05:00:00,
2013-01-11 21:01:00,27.0,26.0,30.36,NE,55,0.0,0.0,96,0.00,,---,0.02,VWS V14.01,2013-01-12 05:01:00,
2013-01-11 21:02:00,27.0,26.0,30.36,NE,55,0.0,0.0,96,0.00,,---,0.02,VWS V14.01,2013-01-12 05:02:00,
2013-01-11 21:07:00,27.0,26.0,30.36,NE,55,1.0,1.0,96,0.00,,---,0.02,VWS V14.01,2013-01-12 05:07:00,
2013-01-11 21:12:00,26.9,25.9,30.36,NE,55,0.0,0.0,96,0.00,,---,0.02,VWS V14.01,2013-01-12 05:12:00,
2013-01-11 21:17:00,26.9,25.9,30.37,NE,55,0.0,2.0,96,0.00,,---,0.02,VWS V14.01,2013-01-12 05:17:00,
2013-01-11 21:22:00,26.9,25.9,30.37,NE,55,0.0,0.0,96,0.00,,---,0.02,VWS V14.01,2013-01-12 05:22:00,
2013-01-11 21:27:00,26.8,25.8,30.37,NE,53,3.0,4.0,96,0.00,,---,0.02,VWS V14.01,2013-01-12 05:27:00,
2013-01-11 21:32:00,26.7,25.7,30.37,NE,53,0.0,0.0,96,0.00,,---,0.02,VWS V14.01,2013-01-12 05:32:00,
2013-01-11 21:37:00,26.7,25.7,30.37,NE,53,0.0,0.0,96,0.00,,---,0.02,VWS V14.01,2013-01-12 05:37:00,
2013-01-11 21:42:00,26.7,25.7,30.37,NE,53,0.0,0.0,96,0.00,,---,0.02,VWS V14.01,2013-01-12 05:42:00,
2013-01-11 21:47:00,26.6,25.6,30.37,NE,53,0.0,1.0,96,0.00,,---,0.02,VWS V14.01,2013-01-12 05:47:00,
2013-01-11 21:52:00,26.5,25.5,30.37,NE,53,0.0,0.0,96,0.00,,---,0.02,VWS V14.01,2013-01-12 05:52:00,
2013-01-11 21:57:00,26.4,25.4,30.37,NE,53,0.0,0.0,96,0.00,,---,0.02,VWS V14.01,2013-01-12 05:57:00,
2013-01-11 22:02:00,26.3,25.3,30.38,NE,53,0.0,0.0,96,0.00,,---,0.02,VWS V14.01,2013-01-12 06:02:00,
2013-01-11 22:07:00,26.2,25.2,30.38,NE,53,0.0,0.0,96,0.00,,---,0.02,VWS V14.01,2013-01-12 06:07:00,
2013-01-11 22:12:00,26.2,25.2,30.38,NE,53,0.0,0.0,96,0.00,,---,0.02,VWS V14.01,2013-01-12 06:12:00,
2013-01-11 22:17:00,26.2,25.2,30.37,NE,53,0.0,0.0,96,0.00,,---,0.02,VWS V14.01,2013-01-12 06:17:00,
2013-01-11 22:22:00,26.1,25.1,30.38,NE,53,0.0,3.0,96,0.00,,---,0.02,VWS V14.01,2013-01-12 06:22:00,
2013-01-11 22:27:00,26.0,25.0,30.37,NE,53,0.0,0.0,96,0.00,,---,0.02,VWS V14.01,2013-01-12 06:27:00,
2013-01-11 22:32:00,25.9,24.9,30.38,NE,53,0.0,1.0,96,0.00,,---,0.02,VWS V14.01,2013-01-12 06:32:00,
2013-01-11 22:37:00,25.9,24.9,30.37,NE,53,1.0,2.0,96,0.00,,---,0.02,VWS V14.01,2013-01-12 06:37:00,
2013-01-11 22:42:00,25.9,24.9,30.37,NE,53,0.0,0.0,96,0.00,,---,0.02,VWS V14.01,2013-01-12 06:42:00,
2013-01-11 22:47:00,25.8,24.8,30.37,NE,53,0.0,1.0,96,0.00,,---,0.02,VWS V14.01,2013-01-12 06:47:00,
2013-01-11 22:52:00,25.8,24.8,30.38,NE,53,2.0,2.0,96,0.00,,---,0.02,VWS V14.01,2013-01-12 06:52:00,
2013-01-11 22:57:00,25.7,24.7,30.38,NE,53,0.0,1.0,96,0.00,,---,0.02,VWS V14.01,2013-01-12 06:57:00,
2013-01-11 23:02:00,25.6,24.6,30.38,NE,53,0.0,0.0,96,0.00,,---,0.02,VWS V14.01,2013-01-12 07:02:00,
2013-01-11 23:07:00,25.6,24.6,30.37,NE,53,0.0,0.0,96,0.00,,---,0.02,VWS V14.01,2013-01-12 07:07:00,
2013-01-11 23:12:00,25.6,24.6,30.37,NE,53,0.0,0.0,96,0.00,,---,0.02,VWS V14.01,2013-01-12 07:12:00,
2013-01-11 23:17:00,25.6,24.6,30.37,NE,53,0.0,0.0,96,0.00,,---,0.02,VWS V14.01,2013-01-12 07:17:00,
2013-01-11 23:22:00,25.7,24.7,30.37,NE,53,0.0,0.0,96,0.00,,---,0.02,VWS V14.01,2013-01-12 07:22:00,
2013-01-11 23:27:00,25.7,24.7,30.38,NE,53,0.0,0.0,96,0.00,,---,0.02,VWS V14.01,2013-01-12 07:27:00,
2013-01-11 23:32:00,25.7,24.7,30.37,NE,53,0.0,0.0,96,0.00,,---,0.02,VWS V14.01,2013-01-12 07:32:00,
2013-01-11 23:37:00,25.6,24.6,30.37,NE,53,0.0,1.0,96,0.00,,---,0.02,VWS V14.01,2013-01-12 07:37:00,
2013-01-11 23:42:00,25.5,24.5,30.37,NE,55,3.0,3.0,96,0.00,,---,0.02,VWS V14.01,2013-01-12 07:42:00,
2013-01-11 23:47:00,25.7,24.7,30.37,NE,55,2.0,3.0,96,0.00,,---,0.02,VWS V14.01,2013-01-12 07:47:00,
2013-01-11 23:52:00,25.7,24.7,30.37,East,79,3.0,4.0,96,0.00,,---,0.02,VWS V14.01,2013-01-12 07:52:00,
2013-01-11 23:57:00,25.8,24.8,30.37,ENE,75,3.0,3.0,96,0.00,,---,0.02,VWS V14.01,2013-01-12 07:57:00,